Location: Newark
(48.1500°N, 2.9667°W)
Time: 04:14:45
(UTC+00:00)

Altair - Pass Details

Date: 28 January 2020
Orbit: 1502 x 1682 km, 47.2° (Epoch: 18 February)

Event Time Altitude Azimuth Distance (km) Brightness Sun altitude
Rises 12:42:11 0° 284° (WNW) 4,933 10.1 23.5°
Reaches altitude 10° 12:45:22 10° 283° (WNW) 3,948 9.7 23.4°
Maximum altitude 12:55:27 69° 203° (SSW) 1,768 8.6 23.2°
Drops below altitude 10° 13:05:21 10° 122° (ESE) 3,882 10.0 23.0°
Sets 13:08:27 0° 120° (ESE) 4,846 10.4 22.9°
